Simultaneous Nadir Overpasses (SNOs) Predictions

Prediction of SNOs between GOES-17 and METOP-B Satellite Orbit:

Table of predicted SNOs for the next 14.0 days since TLE Epoch: 12/17/2023
Index Date Time (GOES-17) GOES-17 Lat,Lon METOP-B Lat,Lon Distance(km) Time Diff (sec)
1 12/17/2023 16:33:50 0.02,-104.68 0.54,-106.99 263.17 80
2 12/18/2023 16:15:48 0.03,-104.68 -0.56,-101.99 306.85 80
3 12/20/2023 04:34:46 -0.03,-104.68 -0.46,-106.58 217.02 80
4 12/21/2023 04:11:24 -0.03,-104.68 0.64,-101.58 352.75 80
5 12/22/2023 16:30:14 0.03,-104.69 0.34,-106.14 164.94 80
6 12/23/2023 16:12:12 0.03,-104.70 -0.77,-101.14 405.05 80
7 12/25/2023 04:31:09 -0.01,-104.69 -0.24,-105.74 119.09 80
8 12/26/2023 04:07:48 -0.01,-104.69 0.87,-100.74 450.66 80
9 12/27/2023 16:26:36 0.02,-104.70 0.16,-105.29 67.24 80
10 12/30/2023 04:27:32 -0.03,-104.71 -0.05,-104.89 19.98 80
